Time,TemperatureF,DewpointF,PressureIn,WindDirection,WindDirectionDegrees,WindSpeedMPH,WindSpeedGustMPH,Humidity,HourlyPrecipIn,Conditions,Clouds,dailyrainin,SoftwareType,DateUTC
2013-03-11 00:08:00,68.9,60.0,30.18,East,82,16.0,16.0,74,0.00,,,0.00,weatherlink.com 1.10,2013-03-11 04:08:00,
2013-03-11 00:24:00,68.8,60.0,30.17,East,86,12.0,17.0,74,0.00,,,0.00,weatherlink.com 1.10,2013-03-11 04:24:00,
2013-03-11 00:38:00,68.7,60.0,30.16,ENE,72,13.0,16.0,73,0.00,,,0.00,weatherlink.com 1.10,2013-03-11 04:38:00,
2013-03-11 00:54:00,68.6,60.0,30.16,East,101,11.0,18.0,73,0.00,,,0.00,weatherlink.com 1.10,2013-03-11 04:54:00,
2013-03-11 01:08:00,68.6,59.0,30.16,ENE,62,14.0,18.0,72,0.00,,,0.00,weatherlink.com 1.10,2013-03-11 05:08:00,
2013-03-11 01:24:00,68.6,60.0,30.15,East,98,8.0,14.0,73,0.00,,,0.00,weatherlink.com 1.10,2013-03-11 05:24:00,
2013-03-11 01:39:00,68.6,60.0,30.15,East,79,10.0,14.0,73,0.00,,,0.00,weatherlink.com 1.10,2013-03-11 05:39:00,
2013-03-11 01:55:00,68.6,59.0,30.15,East,95,14.0,16.0,72,0.00,,,0.00,weatherlink.com 1.10,2013-03-11 05:55:00,
2013-03-11 02:09:00,68.4,59.0,30.14,ENE,77,10.0,16.0,72,0.00,,,0.00,weatherlink.com 1.10,2013-03-11 06:09:00,
2013-03-11 02:25:00,68.5,59.0,30.14,ESE,108,9.0,17.0,72,0.00,,,0.00,weatherlink.com 1.10,2013-03-11 06:25:00,
2013-03-11 02:39:00,68.4,59.0,30.13,East,82,11.0,16.0,71,0.00,,,0.00,weatherlink.com 1.10,2013-03-11 06:39:00,
2013-03-11 02:54:00,68.3,59.0,30.12,East,83,8.0,14.0,72,0.00,,,0.00,weatherlink.com 1.10,2013-03-11 06:54:00,
2013-03-11 03:10:00,68.3,59.0,30.12,East,94,12.0,12.0,71,0.00,,,0.00,weatherlink.com 1.10,2013-03-11 07:10:00,
2013-03-11 03:24:00,68.3,58.0,30.11,East,79,13.0,15.0,70,0.00,,,0.00,weatherlink.com 1.10,2013-03-11 07:24:00,
2013-03-11 03:40:00,68.2,59.0,30.11,ENE,72,7.0,10.0,72,0.00,,,0.00,weatherlink.com 1.10,2013-03-11 07:40:00,
2013-03-11 03:54:00,68.4,58.0,30.11,East,89,10.0,15.0,70,0.00,,,0.00,weatherlink.com 1.10,2013-03-11 07:54:00,
2013-03-11 04:10:00,68.4,58.0,30.10,ENE,70,11.0,16.0,70,0.00,,,0.00,weatherlink.com 1.10,2013-03-11 08:10:00,
2013-03-11 04:25:00,68.4,59.0,30.10,ENE,64,8.0,14.0,71,0.00,,,0.00,weatherlink.com 1.10,2013-03-11 08:25:00,
2013-03-11 04:42:00,68.4,59.0,30.09,ENE,77,5.0,13.0,72,0.00,,,0.00,weatherlink.com 1.10,2013-03-11 08:42:00,
2013-03-11 04:55:00,68.5,60.0,30.09,ESE,105,9.0,15.0,73,0.00,,,0.00,weatherlink.com 1.10,2013-03-11 08:55:00,
2013-03-11 05:11:00,68.4,59.0,30.09,East,82,8.0,12.0,73,0.00,,,0.00,weatherlink.com 1.10,2013-03-11 09:11:00,
2013-03-11 05:25:00,68.4,59.0,30.09,ESE,110,8.0,12.0,73,0.00,,,0.00,weatherlink.com 1.10,2013-03-11 09:25:00,
2013-03-11 05:39:00,68.4,60.0,30.09,East,83,9.0,11.0,74,0.00,,,0.00,weatherlink.com 1.10,2013-03-11 09:39:00,
2013-03-11 05:55:00,68.4,59.0,30.09,East,81,8.0,14.0,73,0.00,,,0.00,weatherlink.com 1.10,2013-03-11 09:55:00,
2013-03-11 06:11:00,68.4,60.0,30.08,East,89,8.0,12.0,74,0.00,,,0.00,weatherlink.com 1.10,2013-03-11 10:11:00,
2013-03-11 06:25:00,68.6,60.0,30.09,East,96,11.0,11.0,74,0.00,,,0.00,weatherlink.com 1.10,2013-03-11 10:25:00,
2013-03-11 06:41:00,68.5,60.0,30.08,East,89,11.0,11.0,74,0.00,,,0.00,weatherlink.com 1.10,2013-03-11 10:41:00,
2013-03-11 06:56:00,68.5,60.0,30.09,East,83,7.0,11.0,74,0.00,,,0.00,weatherlink.com 1.10,2013-03-11 10:56:00,
2013-03-11 07:10:00,68.5,60.0,30.09,East,98,9.0,11.0,74,0.00,,,0.00,weatherlink.com 1.10,2013-03-11 11:10:00,
2013-03-11 07:26:00,68.6,60.0,30.09,East,97,5.0,12.0,74,0.00,,,0.00,weatherlink.com 1.10,2013-03-11 11:26:00,
2013-03-11 07:40:00,68.6,60.0,30.10,ESE,102,8.0,12.0,74,0.00,,,0.00,weatherlink.com 1.10,2013-03-11 11:40:00,
2013-03-11 07:56:00,68.7,60.0,30.10,ESE,114,6.0,11.0,74,0.00,,,0.00,weatherlink.com 1.10,2013-03-11 11:56:00,
2013-03-11 08:10:00,69.2,60.0,30.10,ESE,109,11.0,15.0,73,0.00,,,0.00,weatherlink.com 1.10,2013-03-11 12:10:00,
2013-03-11 08:41:00,70.1,61.0,30.11,East,95,11.0,15.0,72,0.00,,,0.00,weatherlink.com 1.10,2013-03-11 12:41:00,
2013-03-11 08:55:00,70.4,61.0,30.11,ENE,66,7.0,15.0,71,0.00,,,0.00,weatherlink.com 1.10,2013-03-11 12:55:00,
2013-03-11 09:27:00,70.5,60.0,30.11,East,86,10.0,15.0,70,0.00,,,0.00,weatherlink.com 1.10,2013-03-11 13:27:00,
2013-03-11 09:41:00,71.2,61.0,30.11,ESE,103,7.0,15.0,69,0.00,,,0.00,weatherlink.com 1.10,2013-03-11 13:41:00,
2013-03-11 09:57:00,71.7,60.0,30.12,ESE,116,11.0,16.0,67,0.00,,,0.00,weatherlink.com 1.10,2013-03-11 13:57:00,
2013-03-11 10:11:00,71.5,61.0,30.12,ESE,109,12.0,17.0,69,0.00,,,0.00,weatherlink.com 1.10,2013-03-11 14:11:00,
2013-03-11 10:27:00,70.9,61.0,30.13,East,86,13.0,14.0,71,0.00,,,0.00,weatherlink.com 1.10,2013-03-11 14:27:00,
2013-03-11 10:57:00,72.5,61.0,30.12,ESE,115,12.0,14.0,67,0.00,,,0.00,weatherlink.com 1.10,2013-03-11 14:57:00,
2013-03-11 11:27:00,72.0,61.0,30.12,East,99,9.0,13.0,68,0.00,,,0.00,weatherlink.com 1.10,2013-03-11 15:27:00,
2013-03-11 11:43:00,72.3,62.0,30.12,ESE,108,10.0,17.0,69,0.00,,,0.00,weatherlink.com 1.10,2013-03-11 15:43:00,
2013-03-11 11:57:00,72.0,62.0,30.11,SE,129,5.0,18.0,70,0.00,,,0.00,weatherlink.com 1.10,2013-03-11 15:57:00,
2013-03-11 12:13:00,72.2,62.0,30.12,SE,129,7.0,13.0,70,0.00,,,0.00,weatherlink.com 1.10,2013-03-11 16:13:00,
2013-03-11 12:27:00,72.1,61.0,30.11,East,101,11.0,15.0,69,0.00,,,0.00,weatherlink.com 1.10,2013-03-11 16:27:00,
2013-03-11 12:43:00,72.2,61.0,30.11,ESE,110,11.0,13.0,67,0.00,,,0.00,weatherlink.com 1.10,2013-03-11 16:43:00,
2013-03-11 12:57:00,73.9,60.0,30.10,East,101,12.0,14.0,63,0.00,,,0.00,weatherlink.com 1.10,2013-03-11 16:57:00,
2013-03-11 13:13:00,73.7,60.0,30.09,SE,129,8.0,14.0,62,0.00,,,0.00,weatherlink.com 1.10,2013-03-11 17:13:00,
2013-03-11 13:27:00,74.5,61.0,30.09,SSW,197,9.0,15.0,62,0.00,,,0.00,weatherlink.com 1.10,2013-03-11 17:27:00,
2013-03-11 13:42:00,74.9,61.0,30.08,SSE,155,4.0,16.0,62,0.00,,,0.00,weatherlink.com 1.10,2013-03-11 17:42:00,
2013-03-11 13:58:00,74.7,61.0,30.08,SE,145,8.0,14.0,63,0.00,,,0.00,weatherlink.com 1.10,2013-03-11 17:58:00,
2013-03-11 14:12:00,74.7,61.0,30.08,West,262,5.0,14.0,63,0.00,,,0.00,weatherlink.com 1.10,2013-03-11 18:12:00,
2013-03-11 14:28:00,74.9,61.0,30.07,SSE,153,11.0,14.0,62,0.00,,,0.00,weatherlink.com 1.10,2013-03-11 18:28:00,
2013-03-11 14:44:00,73.9,62.0,30.07,SE,135,6.0,16.0,66,0.00,,,0.00,weatherlink.com 1.10,2013-03-11 18:44:00,
2013-03-11 15:14:00,74.3,59.0,30.08,ESE,113,11.0,15.0,59,0.00,,,0.00,weatherlink.com 1.10,2013-03-11 19:14:00,
2013-03-11 15:28:00,73.9,60.0,30.08,ESE,122,9.0,13.0,63,0.00,,,0.00,weatherlink.com 1.10,2013-03-11 19:28:00,
2013-03-11 15:44:00,74.2,61.0,30.08,East,96,5.0,14.0,64,0.00,,,0.00,weatherlink.com 1.10,2013-03-11 19:44:00,
2013-03-11 15:58:00,74.4,60.0,30.07,East,99,12.0,14.0,62,0.00,,,0.00,weatherlink.com 1.10,2013-03-11 19:58:00,
2013-03-11 16:14:00,74.1,62.0,30.07,ESE,107,6.0,15.0,65,0.00,,,0.00,weatherlink.com 1.10,2013-03-11 20:14:00,
2013-03-11 16:28:00,73.7,62.0,30.07,ESE,120,8.0,15.0,66,0.00,,,0.00,weatherlink.com 1.10,2013-03-11 20:28:00,
2013-03-11 16:44:00,73.1,61.0,30.06,SE,135,8.0,17.0,67,0.00,,,0.00,weatherlink.com 1.10,2013-03-11 20:44:00,
2013-03-11 16:58:00,73.4,62.0,30.05,SE,141,7.0,15.0,67,0.00,,,0.00,weatherlink.com 1.10,2013-03-11 20:58:00,
2013-03-11 17:14:00,73.7,62.0,30.05,South,183,11.0,15.0,67,0.00,,,0.00,weatherlink.com 1.10,2013-03-11 21:14:00,
2013-03-11 17:29:00,73.5,62.0,30.04,SSE,148,6.0,16.0,67,0.00,,,0.00,weatherlink.com 1.10,2013-03-11 21:29:00,
2013-03-11 17:43:00,73.4,62.0,30.03,ESE,118,6.0,15.0,68,0.00,,,0.00,weatherlink.com 1.10,2013-03-11 21:43:00,
2013-03-11 17:59:00,73.0,62.0,30.02,ESE,105,9.0,16.0,69,0.00,,,0.00,weatherlink.com 1.10,2013-03-11 21:59:00,
2013-03-11 18:13:00,72.7,62.0,30.02,East,100,14.0,17.0,69,0.00,,,0.00,weatherlink.com 1.10,2013-03-11 22:13:00,
2013-03-11 18:29:00,72.1,62.0,30.02,ESE,120,12.0,17.0,70,0.00,,,0.00,weatherlink.com 1.10,2013-03-11 22:29:00,
2013-03-11 18:44:00,72.3,62.0,30.02,SE,125,10.0,13.0,70,0.00,,,0.00,weatherlink.com 1.10,2013-03-11 22:44:00,
2013-03-11 18:59:00,72.0,63.0,30.02,SE,134,4.0,14.0,72,0.00,,,0.00,weatherlink.com 1.10,2013-03-11 22:59:00,
2013-03-11 19:14:00,71.5,62.0,30.03,SE,133,7.0,15.0,72,0.00,,,0.00,weatherlink.com 1.10,2013-03-11 23:14:00,
2013-03-11 19:30:00,71.1,62.0,30.04,SSE,162,6.0,13.0,74,0.00,,,0.00,weatherlink.com 1.10,2013-03-11 23:30:00,
2013-03-11 19:44:00,71.0,62.0,30.03,SE,126,4.0,13.0,73,0.00,,,0.00,weatherlink.com 1.10,2013-03-11 23:44:00,
2013-03-11 20:00:00,70.7,62.0,30.04,SE,127,4.0,8.0,74,0.00,,,0.00,weatherlink.com 1.10,2013-03-12 00:00:00,
2013-03-11 20:14:00,70.7,62.0,30.04,South,169,8.0,9.0,74,0.00,,,0.00,weatherlink.com 1.10,2013-03-12 00:14:00,
2013-03-11 20:30:00,70.6,62.0,30.05,SE,145,6.0,7.0,75,0.00,,,0.00,weatherlink.com 1.10,2013-03-12 00:30:00,
2013-03-11 20:44:00,70.5,63.0,30.05,SSE,157,3.0,6.0,76,0.00,,,0.00,weatherlink.com 1.10,2013-03-12 00:44:00,
2013-03-11 21:00:00,70.4,63.0,30.06,SE,129,6.0,7.0,76,0.00,,,0.00,weatherlink.com 1.10,2013-03-12 01:00:00,
2013-03-11 21:15:00,70.5,63.0,30.05,ESE,105,6.0,10.0,76,0.00,,,0.00,weatherlink.com 1.10,2013-03-12 01:15:00,
2013-03-11 21:30:00,70.7,63.0,30.05,ESE,115,3.0,10.0,76,0.00,,,0.00,weatherlink.com 1.10,2013-03-12 01:30:00,
2013-03-11 21:45:00,70.6,63.0,30.06,ESE,115,5.0,11.0,77,0.00,,,0.00,weatherlink.com 1.10,2013-03-12 01:45:00,
2013-03-11 22:01:00,70.9,63.0,30.06,SE,135,5.0,10.0,76,0.00,,,0.00,weatherlink.com 1.10,2013-03-12 02:01:00,
2013-03-11 22:15:00,71.1,63.0,30.06,SE,128,5.0,10.0,76,0.00,,,0.00,weatherlink.com 1.10,2013-03-12 02:15:00,
2013-03-11 22:31:00,71.1,63.0,30.06,SE,146,6.0,10.0,76,0.00,,,0.00,weatherlink.com 1.10,2013-03-12 02:31:00,
2013-03-11 22:45:00,71.0,63.0,30.06,SSE,148,6.0,10.0,77,0.00,,,0.00,weatherlink.com 1.10,2013-03-12 02:45:00,
2013-03-11 23:01:00,71.0,63.0,30.06,SE,133,7.0,12.0,77,0.00,,,0.00,weatherlink.com 1.10,2013-03-12 03:01:00,
2013-03-11 23:15:00,71.0,63.0,30.06,SE,133,4.0,10.0,77,0.00,,,0.00,weatherlink.com 1.10,2013-03-12 03:15:00,
2013-03-11 23:31:00,71.1,64.0,30.05,SE,136,8.0,12.0,77,0.00,,,0.00,weatherlink.com 1.10,2013-03-12 03:31:00,
2013-03-11 23:45:00,71.1,63.0,30.05,SE,134,10.0,12.0,76,0.00,,,0.00,weatherlink.com 1.10,2013-03-12 03:45:00,